Details From KTGI - Tangier Island
To KORF - Norfolk Intl
Flight Number -
Tags Decoded
Created
Modified
Stats Distance 77 nm / 142 km
Max Altitude 0 ft / 0 m
Waypoints 6
Social Downloads 3
Likes 0
Share VATSIM

Download

Looking for another format? Having issues loading an existing format? Contact us
Advertisement - Login to hide

Notes

Decoded

Route

KTGI W75 9VA1 RIPPS JIMMY KORF

ID Type Via Altitude Latitude Longitude Leg Dist Tot Dist Heading (true) Name
O KTGI APT - 0 ft / 0 m 37.82100˚ -75.99833˚ - 0 nm - -
W75 APT - 0 ft / 0 m 37.60550˚ -76.44704˚ 24 nm 24 nm 239° / 239° -
9VA1 APT - 0 ft / 0 m 37.40494˚ -76.39203˚ 12 nm 37 nm 168° / 168° -
RIPPS FIX - 0 ft / 0 m 37.21475˚ -76.32306˚ 11 nm 49 nm 164° / 164° -
JIMMY FIX - 0 ft / 0 m 37.05519˚ -76.06283˚ 15 nm 64 nm 127° / 128° -
O KORF APT - 0 ft / 0 m 36.89647˚ -76.21165˚ 11 nm 76 nm 217° / 217° -

Altitude Profile

Advertisement - Login to hide

KTGI

Details ICAO KTGI
Name TANGIER ISLAND
Region United States
Timezone America/New_York (UTC-4.0)
Stats Elevation 5 ft / 2 m (AMSL)
Location 37.825083° -75.997666°
Runways 1
Magnetic Variation 11.210° W

METAR

KTGI 240114Z AUTO 01006KT 10SM CLR 25/19 A3004 RMK AO1

Decode

TAF

Not found

Departure Runways

ID Width Length Bearing (true) Bearing (mag) Surface Threshold Offset Overrun Length
02 75 ft / 23 m 3,005 ft / 916 m 7.35° 18.56° Asphalt 0 ft / 0 m 0 ft / 0 m
20 75 ft / 23 m 3,005 ft / 916 m 187.35° 198.56° Asphalt 98 ft / 30 m 0 ft / 0 m

KORF

Details ICAO KORF (ORF)
Name Norfolk Intl
Region United States
Timezone America/New_York (UTC-4.0)
Stats Elevation 26 ft / 8 m (AMSL)
Location 36.894606° -76.201594°
Runways 2
Magnetic Variation 10.914° W

METAR

KORF 240051Z 01008KT 10SM CLR 25/19 A3003 RMK AO2 SLP168 T02500194

Decode

TAF

TAF KORF 232320Z 2400/2424 04006KT P6SM BKN060 FM240300 03005KT P6SM SCT150 FM241300 04010KT P6SM SKC

Decode

Destination Runways

ID Width Length Bearing (true) Bearing (mag) Surface Threshold Offset Overrun Length
05 151 ft / 46 m 8,028 ft / 2,447 m 37.69° 48.60° Asphalt 190 ft / 58 m 1,198 ft / 365 m
14 151 ft / 46 m 4,674 ft / 1,425 m 128.08° 138.99° Asphalt 187 ft / 57 m 207 ft / 63 m
23 151 ft / 46 m 8,028 ft / 2,447 m 217.70° 228.61° Asphalt 0 ft / 0 m 200 ft / 61 m
32 151 ft / 46 m 4,674 ft / 1,425 m 308.09° 319.00° Asphalt 177 ft / 54 m 0 ft / 0 m

Approach Navaids

Runway Type Ident Frequency Range Bearing (true) Bearing (mag) Slope Elevation
05 Localiser IORF 109.10 MHz 18 nm / 33 km 37.68° 48.59° - 27 ft / 8 m (AMSL)
05 Glidescope IORF 109.10 MHz 10 nm / 19 km 37.69° 48.61° 3.00° 23 ft / 7 m (AMSL)
05 DME IORF 109.10 MHz 18 nm / 33 km - - - 26 ft / 8 m (AMSL)
23 Localiser IJZQ 109.10 MHz 18 nm / 33 km 217.68° 228.59° - 27 ft / 8 m (AMSL)
23 Glidescope IJZQ 109.10 MHz 10 nm / 19 km 217.69° 228.61° 3.00° 18 ft / 5 m (AMSL)
23 DME IJZQ 109.10 MHz 18 nm / 33 km - - - 26 ft / 8 m (AMSL)